When you browse on this site, cookies collect data to enhance your experience and personalize the content and advertising you see.
Visit our Privacy Policy to learn more. By continuing to use the site, you agree to this use of cookies and data.
  • In Hungary
  • List of Countries
  • For 7 days
  • Water Temperature
  • Weather Map
  • News
  • Weather Widgets
  • user-avatar
    Login

    Hourly Weather Somma Vesuviana

    Today, 19 November, Tuesday

    Time Temperature Precipitation Wind Pressure Humidity
    00:00 +13°C° 0.1 mm 3 mps 746 mmHg 71%
    01:00 +13°C° 0.1 mm 3 mps 746 mmHg 72%
    02:00 +13°C° 0.1 mm 3 mps 746 mmHg 73%
    03:00 +13°C° 0.1 mm 3 mps 746 mmHg 74%
    04:00 +13°C° 0.1 mm 3 mps 745 mmHg 75%
    05:00 +12°C° 0.2 mm 3 mps 745 mmHg 76%
    06:00 +12°C° 0.2 mm 3 mps 745 mmHg 77%
    07:00 +12°C° 0.2 mm 3 mps 745 mmHg 78%
    08:00 +13°C° 0.3 mm 3 mps 746 mmHg 75%
    09:00 +14°C° 0.3 mm 3 mps 746 mmHg 71%
    10:00 +16°C° 0.3 mm 3 mps 746 mmHg 68%
    11:00 +16°C° 0.2 mm 3 mps 746 mmHg 66%
    12:00 +17°C° 0.2 mm 3 mps 745 mmHg 63%
    13:00 +17°C° 0.2 mm 3 mps 745 mmHg 61%
    14:00 +17°C° 0.4 mm 3 mps 744 mmHg 62%
    15:00 +16°C° 0.4 mm 3 mps 744 mmHg 63%
    16:00 +16°C° 0.4 mm 3 mps 744 mmHg 64%
    17:00 +16°C° 0.7 mm 3 mps 744 mmHg 67%
    18:00 +14°C° 0.7 mm 3 mps 744 mmHg 69%
    19:00 +15°C° 0.7 mm 2 mps 744 mmHg 72%
    20:00 +14°C° 0.3 mm 2 mps 744 mmHg 74%
    21:00 +14°C° 0.3 mm 2 mps 744 mmHg 76%
    22:00 +14°C° 0.3 mm 2 mps 744 mmHg 78%
    23:00 +13°C° 0.2 mm 1 mps 743 mmHg 78%

    Tomorrow, 20 November, Wednesday

    Time Temperature Precipitation Wind Pressure Humidity
    00:00 +13°C° 0.2 mm 1 mps 743 mmHg 78%
    01:00 +13°C° 0.2 mm 1 mps 743 mmHg 79%
    02:00 +13°C° 0.1 mm 1 mps 743 mmHg 79%
    03:00 +13°C° 0.1 mm 1 mps 743 mmHg 79%
    04:00 +13°C° 0.1 mm 1 mps 743 mmHg 79%
    05:00 +13°C° 0.3 mm 1 mps 743 mmHg 79%
    06:00 +13°C° 0.3 mm 1 mps 743 mmHg 78%
    07:00 +13°C° 0.3 mm 2 mps 743 mmHg 78%
    08:00 +13°C° 0.3 mm 2 mps 743 mmHg 76%
    09:00 +14°C° 0.3 mm 2 mps 744 mmHg 73%
    10:00 +15°C° 0.3 mm 2 mps 744 mmHg 71%
    11:00 +16°C° 0.4 mm 2 mps 744 mmHg 68%
    12:00 +16°C° 0.4 mm 3 mps 744 mmHg 65%
    13:00 +17°C° 0.4 mm 3 mps 744 mmHg 63%
    14:00 +16°C° 0.4 mm 3 mps 744 mmHg 65%
    15:00 +16°C° 0.4 mm 3 mps 745 mmHg 67%
    16:00 +14°C° 0.4 mm 3 mps 745 mmHg 70%
    17:00 +14°C° 0.1 mm 3 mps 745 mmHg 73%
    18:00 +13°C° 0.1 mm 3 mps 745 mmHg 76%
    19:00 +13°C° 0.1 mm 3 mps 746 mmHg 78%
    20:00 +13°C° 0.2 mm 3 mps 746 mmHg 78%
    21:00 +13°C° 0.2 mm 3 mps 746 mmHg 77%
    22:00 +13°C° 0.2 mm 3 mps 746 mmHg 77%
    23:00 +12°C° 0.1 mm 3 mps 746 mmHg 76%

    Day after tomorrow, 21 November, Thursday

    Time Temperature Precipitation Wind Pressure Humidity
    00:00 +13°C° 0.1 mm 2 mps 746 mmHg 76%
    01:00 +13°C° 0.1 mm 2 mps 746 mmHg 75%
    02:00 +13°C° 0.1 mm 2 mps 746 mmHg 74%
    03:00 +13°C° 0.1 mm 1 mps 746 mmHg 73%
    04:00 +13°C° 0.1 mm 1 mps 746 mmHg 73%
    05:00 +12°C° 0 mm 1 mps 746 mmHg 72%
    06:00 +12°C° 0 mm 1 mps 746 mmHg 71%
    07:00 +11°C° 0 mm 0 mps 746 mmHg 70%
    08:00 +13°C° 0 mm 1 mps 746 mmHg 65%
    09:00 +14°C° 0 mm 1 mps 746 mmHg 60%
    10:00 +15°C° 0 mm 1 mps 746 mmHg 55%
    11:00 +15°C° 0 mm 1 mps 746 mmHg 55%
    12:00 +15°C° 0 mm 2 mps 746 mmHg 55%
    13:00 +16°C° 0 mm 2 mps 745 mmHg 56%
    14:00 +15°C° 0 mm 2 mps 745 mmHg 57%
    15:00 +15°C° 0 mm 1 mps 745 mmHg 59%
    16:00 +15°C° 0 mm 1 mps 745 mmHg 61%
    17:00 +14°C° 0 mm 1 mps 745 mmHg 62%
    18:00 +14°C° 0 mm 1 mps 745 mmHg 64%
    19:00 +13°C° 0 mm 1 mps 745 mmHg 66%
    20:00 +12°C° 0 mm 0 mps 746 mmHg 67%
    21:00 +12°C° 0 mm 0 mps 746 mmHg 68%
    22:00 +12°C° 0 mm 0 mps 746 mmHg 69%
    23:00 +12°C° 0 mm 0 mps 746 mmHg 70%

    22 November, Friday

    Time Temperature Precipitation Wind Pressure Humidity
    00:00 +12°C° 0 mm 0 mps 746 mmHg 70%
    01:00 +13°C° 0 mm 1 mps 746 mmHg 71%
    02:00 +13°C° 0 mm 1 mps 746 mmHg 71%
    03:00 +12°C° 0 mm 1 mps 746 mmHg 72%
    04:00 +12°C° 0 mm 1 mps 745 mmHg 72%
    05:00 +12°C° 0 mm 1 mps 746 mmHg 73%
    06:00 +12°C° 0 mm 1 mps 746 mmHg 74%
    07:00 +12°C° 0 mm 1 mps 746 mmHg 75%
    08:00 +13°C° 0 mm 1 mps 746 mmHg 70%
    09:00 +14°C° 0 mm 1 mps 746 mmHg 66%
    10:00 +15°C° 0 mm 1 mps 747 mmHg 61%
    11:00 +16°C° 0 mm 2 mps 746 mmHg 59%
    12:00 +16°C° 0 mm 2 mps 746 mmHg 57%
    13:00 +17°C° 0 mm 2 mps 746 mmHg 54%
    14:00 +16°C° 0 mm 2 mps 746 mmHg 57%
    15:00 +16°C° 0 mm 2 mps 746 mmHg 59%
    16:00 +15°C° 0 mm 2 mps 746 mmHg 61%
    17:00 +15°C° 0 mm 2 mps 746 mmHg 64%
    18:00 +15°C° 0 mm 2 mps 746 mmHg 66%
    19:00 +14°C° 0 mm 2 mps 746 mmHg 68%
    20:00 +14°C° 0.1 mm 2 mps 746 mmHg 69%
    21:00 +14°C° 0.1 mm 2 mps 746 mmHg 70%
    22:00 +14°C° 0.1 mm 2 mps 746 mmHg 72%
    23:00 +13°C° 0.1 mm 2 mps 746 mmHg 73%

    23 November, Saturday

    Time Temperature Precipitation Wind Pressure Humidity
    00:00 +13°C° 0.1 mm 2 mps 746 mmHg 74%
    01:00 +13°C° 0.1 mm 2 mps 746 mmHg 76%
    02:00 +13°C° 0 mm 2 mps 745 mmHg 76%
    03:00 +13°C° 0 mm 2 mps 745 mmHg 77%
    04:00 +12°C° 0 mm 2 mps 745 mmHg 78%
    05:00 +12°C° 0 mm 2 mps 745 mmHg 77%
    06:00 +12°C° 0 mm 2 mps 744 mmHg 77%
    07:00 +12°C° 0 mm 2 mps 744 mmHg 76%
    08:00 +13°C° 0 mm 2 mps 744 mmHg 71%
    09:00 +13°C° 0 mm 3 mps 744 mmHg 65%
    10:00 +16°C° 0 mm 3 mps 744 mmHg 59%
    11:00 +16°C° 0 mm 3 mps 744 mmHg 56%
    12:00 +17°C° 0 mm 3 mps 743 mmHg 52%
    13:00 +18°C° 0 mm 4 mps 742 mmHg 49%
    14:00 +17°C° 0.2 mm 4 mps 742 mmHg 52%
    15:00 +17°C° 0.2 mm 4 mps 742 mmHg 56%
    16:00 +15°C° 0.2 mm 4 mps 741 mmHg 60%
    17:00 +15°C° 0.2 mm 4 mps 741 mmHg 63%
    18:00 +14°C° 0.2 mm 4 mps 741 mmHg 66%
    19:00 +14°C° 0.2 mm 4 mps 741 mmHg 69%
    20:00 +14°C° 0.1 mm 4 mps 740 mmHg 67%
    21:00 +14°C° 0.1 mm 4 mps 740 mmHg 65%
    22:00 +14°C° 0.1 mm 4 mps 740 mmHg 62%
    23:00 +14°C° 0.3 mm 4 mps 739 mmHg 65%

    24 November, Sunday

    Time Temperature Precipitation Wind Pressure Humidity
    00:00 +14°C° 0.3 mm 5 mps 739 mmHg 67%
    01:00 +14°C° 0.3 mm 5 mps 738 mmHg 69%
    02:00 +14°C° 1.3 mm 5 mps 737 mmHg 73%
    03:00 +13°C° 1.3 mm 5 mps 737 mmHg 78%
    04:00 +13°C° 1.3 mm 5 mps 736 mmHg 82%
    05:00 +13°C° 2.9 mm 5 mps 736 mmHg 84%
    06:00 +13°C° 2.9 mm 4 mps 736 mmHg 85%
    07:00 +12°C° 2.9 mm 4 mps 736 mmHg 87%
    08:00 +13°C° 0.8 mm 4 mps 736 mmHg 82%
    09:00 +14°C° 0.8 mm 3 mps 737 mmHg 78%
    10:00 +14°C° 0.8 mm 3 mps 737 mmHg 73%
    11:00 +16°C° 0 mm 3 mps 738 mmHg 67%
    12:00 +17°C° 0 mm 3 mps 738 mmHg 62%
    13:00 +18°C° 0 mm 2 mps 738 mmHg 56%
    14:00 +17°C° 0 mm 3 mps 738 mmHg 59%
    15:00 +17°C° 0 mm 4 mps 739 mmHg 63%
    16:00 +15°C° 0 mm 4 mps 739 mmHg 67%
    17:00 +15°C° 0 mm 4 mps 740 mmHg 70%
    18:00 +15°C° 0 mm 4 mps 740 mmHg 74%
    19:00 +14°C° 0 mm 4 mps 741 mmHg 77%
    20:00 +14°C° 0 mm 4 mps 742 mmHg 78%
    21:00 +14°C° 0 mm 4 mps 742 mmHg 80%
    22:00 +14°C° 0 mm 5 mps 743 mmHg 81%
    23:00 +14°C° 0 mm 4 mps 743 mmHg 81%
    Show more